Location: Decatur Area Astronomy Club
(40.0275°N, 88.7810°W)
Time: 05:20:43
(UTC-05:00)

Amateur Radio Satellites - All Passes

Search period start: 28 July 2014 04:50
Search period end: 29 July 2014 04:50
Location: Decatur Area Astronomy Club, 40.0275°N, 88.7810°W

Satellite Date Start Highest point End Downlink Frequencies (MHz)
Time Altitude Azimuth
ITAMSAT 1 28 Jul 04:50:41 04:53:12 14° 300° (WNW) 04:55:43 435.822 SSB
TMSAT-1 28 Jul 05:00:43 05:05:25 34° 292° (WNW) 05:10:07 436.925 FM
Lituanica SAT-1 28 Jul 05:01:44 05:03:12 87° 169° (S) 05:04:36 437.275 MHz beacon
ISS 28 Jul 05:10:20 05:12:52 19° 21° (NNE) 05:15:24 145.800 FM
STRAND 1 28 Jul 05:22:35 05:24:48 13° 60° (ENE) 05:27:01 ?
Gurwin Techsat 1B 28 Jul 05:25:40 05:28:47 16° 299° (WNW) 05:31:54 435.225 FM
JAS-1B 28 Jul 05:50:41 05:57:04 21° 308° (NW) 06:02:59 435.800 - 435.900 CW/SSB
KITSAT 1 28 Jul 06:03:48 06:11:26 48° 111° (ESE) 06:19:05 435.175 FM
Hamsat 28 Jul 06:12:38 06:16:11 25° 95° (E) 06:19:45 145.90 MHz
MaSat-1 28 Jul 06:13:18 06:17:43 26° 53° (NE) 06:21:58 437.345 MHz
Uosat F 28 Jul 06:23:40 06:27:37 24° 295° (WNW) 06:31:33 435.120 FM
AO-7 28 Jul 06:38:32 06:46:14 44° 298° (WNW) 06:53:54 29.400 - 29.500 MHz
ISS 28 Jul 06:46:34 06:49:56 81° 218° (SW) 06:53:17 145.800 FM
PANSAT 28 Jul 06:53:21 06:55:33 15° 178° (S) 06:57:45 not established
Saudisat 1A 28 Jul 06:54:24 06:56:59 15° 109° (ESE) 06:59:35 436.775 MHz
JAS-2 28 Jul 06:57:33 07:03:23 53° 99° (E) 07:08:37 435.800 - 435.900 CW/SSB, 435.910 FM
STRAND 1 28 Jul 06:58:07 07:03:16 82° 257° (WSW) 07:08:27 ?
SO-67 28 Jul 07:20:05 07:22:34 18° 94° (E) 07:25:02 435.3500 MHz FM
Hamsat 28 Jul 07:48:27 07:52:06 27° 290° (WNW) 07:55:46 145.90 MHz
MaSat-1 28 Jul 07:50:14 07:55:17 46° 252° (WSW) 08:00:02 437.345 MHz
KITSAT 1 28 Jul 07:59:21 08:06:55 42° 311° (NW) 08:14:31 435.175 FM
HO-68 28 Jul 08:28:24 08:31:30 13° 89° (E) 08:34:35 435.675 MHz FM
Saudisat 1A 28 Jul 08:31:48 08:36:07 54° 306° (NW) 08:40:29 436.775 MHz
PANSAT 28 Jul 08:33:35 08:35:01 12° 191° (S) 08:36:28 not established
JAS-2 28 Jul 08:43:36 08:47:56 21° 300° (WNW) 08:51:58 435.800 - 435.900 CW/SSB, 435.910 FM
SO-67 28 Jul 08:52:47 08:55:35 23° 289° (WNW) 08:58:23 435.3500 MHz FM
Sapphire 28 Jul 09:02:46 09:06:37 19° 45° (NE) 09:10:27 437.095 MHz 1200 baud AX-25 AFSK
PCSat 28 Jul 09:35:38 09:40:36 35° 53° (NE) 09:45:31 145.825 MHz
UKube-1 28 Jul 09:58:52 10:03:05 47° 100° (E) 10:07:16 145.840 MHz, 145.915 MHz
KITSAT 1 28 Jul 10:01:16 10:04:55 13° 337° (NNW) 10:08:33 435.175 FM
HO-68 28 Jul 10:12:58 10:20:09 83° 106° (ESE) 10:27:18 435.675 MHz FM
Oscar 11 28 Jul 10:44:50 10:49:11 83° 103° (ESE) 10:53:32 145.825 FM, Beacon 2401.500 USB
Sapphire 28 Jul 10:45:11 10:50:35 71° 244° (WSW) 10:55:58 437.095 MHz 1200 baud AX-25 AFSK
FUNcube-1 28 Jul 11:04:09 11:08:11 47° 99° (E) 11:12:15 145.950 - 145.970 MHz USB
PCSat 28 Jul 11:19:07 11:23:57 33° 250° (WSW) 11:28:44 145.825 MHz
UKube-1 28 Jul 11:36:17 11:38:54 16° 296° (WNW) 11:41:30 145.840 MHz, 145.915 MHz
HO-68 28 Jul 12:02:14 12:07:00 20° 304° (NW) 12:11:46 435.675 MHz FM
Oscar 19 28 Jul 12:04:53 12:05:26 10° 58° (ENE) 12:05:59 437.125 CW, 437.150 USB
Oscar 16 28 Jul 12:29:44 12:33:19 20° 64° (ENE) 12:36:54 437.025 USB, Beacon 2401.1428
RS-15 28 Jul 12:35:02 12:44:32 34° 106° (ESE) 12:53:49 29.354 - 29.394 USB, Beacon 29.352 USB
FUNcube-1 28 Jul 12:41:56 12:44:13 14° 295° (WNW) 12:46:29 145.950 - 145.970 MHz USB
ITAMSAT 1 28 Jul 12:50:21 12:52:57 14° 60° (ENE) 12:55:32 435.822 SSB
JAS-1B 28 Jul 12:53:07 12:59:27 21° 52° (NE) 13:06:05 435.800 - 435.900 CW/SSB
SO-50 28 Jul 13:04:34 13:09:01 85° 302° (WNW) 13:13:36 436.795 FM
AO-27 28 Jul 13:07:57 13:11:45 21° 64° (ENE) 13:15:33 436.795 MHz FM
Uribyol 2 28 Jul 13:08:27 13:12:20 22° 64° (ENE) 13:16:13 436.500 FM
Gurwin Techsat 1B 28 Jul 13:28:18 13:30:40 13° 60° (ENE) 13:33:02 435.225 FM
UOSAT-12 28 Jul 13:31:40 13:33:48 13° 107° (ESE) 13:35:56 437.025 FM, 437.400 FM
Oscar 19 28 Jul 13:38:49 13:43:55 82° 75° (ENE) 13:49:03 437.125 CW, 437.150 USB
KITSAT 1 28 Jul 13:57:45 14:04:04 24° 39° (NE) 14:10:20 435.175 FM
AO-7 28 Jul 13:57:59 14:00:48 12° 44° (NE) 14:03:37 29.400 - 29.500 MHz
AO-Echo 28 Jul 13:59:59 14:05:12 63° 73° (ENE) 14:10:28 ?
Oscar 16 28 Jul 14:07:18 14:12:16 51° 260° (W) 14:17:16 437.025 USB, Beacon 2401.1428
ITAMSAT 1 28 Jul 14:26:33 14:31:46 77° 257° (WSW) 14:37:00 435.822 SSB
JAS-1B 28 Jul 14:39:30 14:48:17 80° 73° (ENE) 14:58:09 435.800 - 435.900 CW/SSB
TMSAT-1 28 Jul 14:40:58 14:45:57 43° 70° (ENE) 14:50:57 436.925 FM
RS-15 28 Jul 14:45:03 14:56:06 67° 307° (NW) 15:07:00 29.354 - 29.394 USB, Beacon 29.352 USB
AO-27 28 Jul 14:45:51 14:50:53 49° 260° (W) 14:55:58 436.795 MHz FM
Uribyol 2 28 Jul 14:46:29 14:51:28 47° 260° (W) 14:56:29 436.500 FM
SO-50 28 Jul 14:48:15 14:50:19 13° 322° (NW) 14:52:26 436.795 FM
Gurwin Techsat 1B 28 Jul 15:04:35 15:09:54 84° 257° (WSW) 15:15:15 435.225 FM
UOSAT-12 28 Jul 15:08:46 15:13:20 67° 304° (NW) 15:18:01 437.025 FM, 437.400 FM
Saudisat 1A 28 Jul 15:21:00 15:23:19 14° 40° (NE) 15:25:38 436.775 MHz
Oscar 19 28 Jul 15:22:44 15:23:51 11° 271° (W) 15:24:59 437.125 CW, 437.150 USB
AO-Echo 28 Jul 15:41:10 15:44:21 16° 269° (W) 15:47:34 ?
AO-7 28 Jul 15:43:41 15:51:43 55° 65° (ENE) 15:59:47 29.400 - 29.500 MHz
KITSAT 1 28 Jul 15:52:28 16:00:36 89° 61° (ENE) 16:08:40 435.175 FM
Uosat F 28 Jul 15:56:53 16:01:46 52° 72° (ENE) 16:06:40 435.120 FM
TMSAT-1 28 Jul 16:21:54 16:26:01 23° 266° (W) 16:30:10 436.925 FM
JAS-1B 28 Jul 16:32:55 16:39:44 25° 273° (W) 16:47:11 435.800 - 435.900 CW/SSB
OPAL 28 Jul 16:47:08 16:52:05 51° 102° (ESE) 16:57:03 ?
UOSAT-12 28 Jul 16:52:50 16:54:24 11° 324° (NW) 16:55:59 437.025 FM, 437.400 FM
Saudisat 1A 28 Jul 16:59:04 17:03:30 83° 239° (WSW) 17:07:53 436.775 MHz
RS-15 28 Jul 17:02:39 17:11:03 24° 335° (NNW) 17:19:29 29.354 - 29.394 USB, Beacon 29.352 USB
Hamsat 28 Jul 17:06:25 17:09:06 17° 66° (ENE) 17:11:47 145.90 MHz
JAS-2 28 Jul 17:07:42 17:14:02 29° 64° (ENE) 17:20:03 435.800 - 435.900 CW/SSB, 435.910 FM
AO-7 28 Jul 17:37:26 17:44:45 33° 263° (W) 17:52:08 29.400 - 29.500 MHz
Uosat F 28 Jul 17:37:30 17:40:50 18° 267° (W) 17:44:11 435.120 FM
KITSAT 1 28 Jul 17:49:56 17:54:54 18° 259° (W) 17:59:51 435.175 FM
OPAL 28 Jul 18:26:58 18:30:35 20° 298° (WNW) 18:34:15 ?
Hamsat 28 Jul 18:40:49 18:44:44 39° 262° (W) 18:48:42 145.90 MHz
JAS-2 28 Jul 18:50:51 18:58:35 62° 259° (W) 19:05:55 435.800 - 435.900 CW/SSB, 435.910 FM
HO-68 28 Jul 18:59:24 19:01:09 11° 49° (NE) 19:02:54 435.675 MHz FM
STRAND 1 28 Jul 19:09:46 19:14:26 35° 97° (E) 19:19:04 ?
RS-15 28 Jul 19:21:38 19:29:00 19° 12° (NNE) 19:36:26 29.354 - 29.394 USB, Beacon 29.352 USB
SO-67 28 Jul 19:24:29 19:27:57 81° 259° (W) 19:31:26 435.3500 MHz FM
SO-50 28 Jul 19:58:07 20:00:03 12° 38° (NE) 20:01:59 436.795 FM
HO-68 28 Jul 20:40:23 20:47:22 59° 69° (ENE) 20:54:23 435.675 MHz FM
STRAND 1 28 Jul 20:49:13 20:53:27 27° 294° (WNW) 20:57:40 ?
UKube-1 28 Jul 20:53:48 20:57:51 39° 71° (ENE) 21:01:55 145.840 MHz, 145.915 MHz
RS-15 28 Jul 21:34:56 21:45:20 44° 44° (NE) 21:56:01 29.354 - 29.394 USB, Beacon 29.352 USB
SO-50 28 Jul 21:36:41 21:41:27 72° 57° (ENE) 21:46:15 436.795 FM
Oscar 11 28 Jul 21:39:06 21:43:20 59° 74° (ENE) 21:47:34 145.825 FM, Beacon 2401.500 USB
MaSat-1 28 Jul 21:40:27 21:44:27 82° 296° (WNW) 21:49:10 437.345 MHz
FUNcube-1 28 Jul 22:00:08 22:04:05 35° 71° (ENE) 22:07:58 145.950 - 145.970 MHz USB
UOSAT-12 28 Jul 22:00:24 22:02:53 14° 39° (NE) 22:05:22 437.025 FM, 437.400 FM
HO-68 28 Jul 22:29:41 22:35:26 26° 266° (W) 22:41:12 435.675 MHz FM
UKube-1 28 Jul 22:31:11 22:34:11 18° 266° (W) 22:37:12 145.840 MHz, 145.915 MHz
Oscar 11 28 Jul 23:18:28 23:19:53 11° 270° (W) 23:21:17 145.825 FM, Beacon 2401.500 USB
SO-50 28 Jul 23:19:15 23:21:26 13° 252° (WSW) 23:23:38 436.795 FM
MaSat-1 28 Jul 23:21:27 23:22:45 11° 317° (NW) 23:24:07 437.345 MHz
ISS 28 Jul 23:28:19 23:31:31 46° 138° (SE) 23:34:45 145.800 FM
FUNcube-1 28 Jul 23:37:31 23:40:34 19° 266° (W) 23:43:36 145.950 - 145.970 MHz USB
UOSAT-12 28 Jul 23:39:00 23:43:46 86° 58° (ENE) 23:48:26 437.025 FM, 437.400 FM
Sapphire 28 Jul 23:45:27 23:48:40 16° 104° (ESE) 23:51:53 437.095 MHz 1200 baud AX-25 AFSK
RS-15 28 Jul 23:47:20 23:58:04 59° 247° (WSW) 00:09:13 29.354 - 29.394 USB, Beacon 29.352 USB
PCSat 29 Jul 00:16:57 00:21:46 34° 110° (ESE) 00:26:38 145.825 MHz
ISS 29 Jul 01:05:32 01:08:22 25° 335° (NNW) 01:11:14 145.800 FM
Sapphire 29 Jul 01:26:07 01:31:29 66° 301° (WNW) 01:36:54 437.095 MHz 1200 baud AX-25 AFSK
AO-40 29 Jul 01:36:55 03:08:22 15° 115° (ESE) 04:04:36 Beacon 2401.320
Oscar 19 29 Jul 01:51:27 01:56:00 30° 96° (E) 02:00:32 437.125 CW, 437.150 USB
PCSat 29 Jul 02:00:16 02:05:09 34° 308° (NW) 02:10:04 145.825 MHz
AO-Echo 29 Jul 02:09:12 02:12:57 21° 93° (E) 02:16:35 ?
Oscar 16 29 Jul 02:19:26 02:24:33 60° 101° (E) 02:29:39 437.025 USB, Beacon 2401.1428
OPAL 29 Jul 02:27:36 02:28:30 11° 56° (NE) 02:29:23 ?
JAS-1B 29 Jul 02:28:17 02:35:57 29° 89° (E) 02:42:40 435.800 - 435.900 CW/SSB
ITAMSAT 1 29 Jul 02:40:22 02:45:14 40° 98° (E) 02:50:03 435.822 SSB
ISS 29 Jul 02:44:40 02:46:01 12° 355° (N) 02:47:21 145.800 FM
TMSAT-1 29 Jul 02:58:25 03:01:58 18° 92° (E) 03:05:30 436.925 FM
AO-27 29 Jul 02:59:23 03:04:33 63° 102° (ESE) 03:09:39 436.795 MHz FM
Uribyol 2 29 Jul 02:59:39 03:04:47 66° 102° (ESE) 03:09:54 436.500 FM
Sapphire 29 Jul 03:13:53 03:15:59 12° 321° (NW) 03:18:05 437.095 MHz 1200 baud AX-25 AFSK
Gurwin Techsat 1B 29 Jul 03:21:41 03:26:43 41° 98° (E) 03:31:42 435.225 FM
Oscar 19 29 Jul 03:30:45 03:35:17 32° 292° (WNW) 03:39:48 437.125 CW, 437.150 USB
AO-Echo 29 Jul 03:47:08 03:51:55 43° 290° (WNW) 03:56:32 ?
AO-7 29 Jul 03:48:01 03:52:51 16° 90° (E) 03:57:37 29.400 - 29.500 MHz
Oscar 16 29 Jul 04:00:07 04:03:24 17° 297° (WNW) 04:06:41 437.025 USB, Beacon 2401.1428
OPAL 29 Jul 04:01:38 04:06:34 85° 73° (ENE) 04:11:33 ?
Uosat F 29 Jul 04:06:33 04:09:41 16° 92° (E) 04:12:48 435.120 FM
JAS-1B 29 Jul 04:17:50 04:27:09 65° 291° (WNW) 04:35:05 435.800 - 435.900 CW/SSB
ITAMSAT 1 29 Jul 04:20:22 04:24:29 25° 295° (WNW) 04:28:35 435.822 SSB
ISS 29 Jul 04:21:44 04:23:50 15° 16° (NNE) 04:25:57 145.800 FM
KITSAT 1 29 Jul 04:31:00 04:33:27 12° 98° (E) 04:35:53 435.175 FM
TMSAT-1 29 Jul 04:37:03 04:42:12 54° 288° (WNW) 04:47:20 436.925 FM
AO-27 29 Jul 04:40:20 04:43:31 17° 298° (WNW) 04:46:41 436.795 MHz FM
Uribyol 2 29 Jul 04:40:42 04:43:42 16° 299° (WNW) 04:46:42 436.500 FM
